This demonstration page uses our WeatherBlox Daily Observations layout. Learn more.

Hourly Observations for October 20, 2016

Temp ( °F °C ) Dew Point ( °F °C ) Humidity (%) Winds ( mph kmh ) Pressure ( in mb ) Visibility ( mi km ) Precip ( " mm )
12:15 am 00:15 Partly Cloudy 42 5.4 40 4.4 93 93 NW 5 7 30.33 1027 10 16.09344 0 0
12:35 am 00:35 Cloudy 44 6.4 42 5.6 95 95 NW 6 9 30.33 1027 10 16.09344 0 0
12:55 am 00:55 Cloudy 45 7.2 44 6.4 95 95 NW 5 7 30.36 1028 10 16.09344 0 0
1:15 am 01:15 Cloudy 45 7.4 44 6.5 94 94 NNW 5 7 30.36 1028 10 16.09344 0 0
1:35 am 01:35 Cloudy 46 7.5 44 6.5 93 93 N 3 6 30.36 1028 10 16.09344 0 0
1:55 am 01:55 Mostly Cloudy 45 7.3 43 6.3 93 93 N 7 11 30.36 1028 10 16.09344 0 0
2:15 am 02:15 Partly Cloudy 45 7.1 43 6.1 93 93 NNE 5 7 30.36 1028 10 16.09344 0 0
2:35 am 02:35 Partly Cloudy 45 7 43 6.1 94 94 NNW 3 6 30.36 1028 10 16.09344 0 0
2:55 am 02:55 Mostly Cloudy 45 7.3 44 6.4 94 94 N 3 6 30.36 1028 10 16.09344 0 0
3:15 am 03:15 Cloudy 46 7.8 44 6.7 93 93 N 5 7 30.36 1028 10 16.09344 0 0
3:35 am 03:35 Cloudy 46 7.8 44 6.6 92 92 N 5 7 30.39 1029 10 16.09344 0 0
3:55 am 03:55 Cloudy 46 7.8 44 6.6 92 92 N 5 7 30.39 1029 10 16.09344 0 0
4:15 am 04:15 Cloudy 46 7.7 44 6.5 92 92 N 3 6 30.39 1029 10 16.09344 0 0
4:35 am 04:35 Cloudy 46 7.8 44 6.5 92 92 N 6 9 30.39 1029 10 16.09344 0 0
4:55 am 04:55 Cloudy 46 7.7 43 6.3 91 91 N 6 9 30.39 1029 10 16.09344 0 0
5:15 am 05:15 Cloudy 46 7.5 43 6.2 92 92 N 3 6 30.39 1029 10 16.09344 0 0
5:35 am 05:35 Cloudy 45 7.3 43 6 92 92 Calm 30.42 1030 10 16.09344 0 0
5:55 am 05:55 Mostly Cloudy 45 7 43 6 93 93 N 3 6 30.42 1030 10 16.09344 0 0
6:15 am 06:15 Partly Cloudy 44 6.7 42 5.7 93 93 N 5 7 30.42 1030 10 16.09344 0 0
6:35 am 06:35 Partly Cloudy 44 6.4 42 5.5 94 94 N 7 11 30.42 1030 10 16.09344 0 0
6:55 am 06:55 Cloudy 44 6.5 42 5.5 93 93 N 5 7 30.42 1030 10 16.09344 0 0
7:15 am 07:15 Partly Cloudy 43 6 41 5.1 94 94 N 5 7 30.45 1031 10 16.09344 0 0
7:35 am 07:35 Partly Cloudy 43 6 41 5.1 94 94 N 5 7 30.45 1031 10 16.09344 0 0
7:55 am 07:55 Sunny 42 5.5 40 4.5 93 93 Calm 30.45 1031 10 16.09344 0 0
8:15 am 08:15 Mostly Cloudy 41 4.9 40 4.2 95 95 NNE 5 7 30.48 1032 10 16.09344 0 0
8:35 am 08:35 Cloudy 43 6 41 5.2 95 95 Calm 30.48 1032 10 16.09344 0 0
8:55 am 08:55 Cloudy 43 6.3 42 5.6 95 95 Calm 30.48 1032 10 16.09344 0 0
9:15 am 09:15 Cloudy 44 6.5 42 5.7 95 95 Calm 30.45 1031 10 16.09344 0 0
9:35 am 09:35 Cloudy 44 6.6 42 5.8 95 95 N 3 6 30.45 1031 10 16.09344 0 0
9:55 am 09:55 Cloudy 44 6.7 42 5.7 93 93 NNE 5 7 30.45 1031 10 16.09344 0 0
10:15 am 10:15 Cloudy 45 7.2 43 6.1 93 93 Calm 30.45 1031 10 16.09344 0 0
10:35 am 10:35 Cloudy 46 7.6 43 6.1 90 90 Calm 30.45 1031 10 16.09344 0 0
10:55 am 10:55 Cloudy 47 8.5 43 6.2 86 86 NNW 3 6 30.45 1031 10 16.09344 0 0
11:15 am 11:15 Cloudy 48 8.9 43 6.2 83 83 NNW 3 6 30.45 1031 10 16.09344 0 0
11:35 am 11:35 Cloudy 48 9.1 43 6.2 82 82 WNW 3 6 30.45 1031 10 16.09344 0 0
11:55 am 11:55 Cloudy 49 9.6 43 5.9 78 78 W 3 6 30.45 1031 10 16.09344 0 0
12:15 pm 12:15 Cloudy 50 10.1 43 6 76 76 NW 5 7 30.42 1030 10 16.09344 0 0
12:35 pm 12:35 Cloudy 52 11.2 43 6.3 72 72 NNW 5 7 30.42 1030 10 16.09344 0 0
12:55 pm 12:55 Cloudy 53 11.8 43 6 68 68 W 5 7 30.39 1029 10 16.09344 0 0
1:15 pm 13:15 Cloudy 54 12.4 42 5.8 64 64 W 6 9 30.39 1029 10 16.09344 0 0
1:35 pm 13:35 Mostly Cloudy 54 12 41 4.8 62 62 NW 7 11 30.39 1029 10 16.09344 0 0
1:55 pm 13:55 Partly Cloudy 56 13.3 40 4.5 55 55 W 9 15 30.33 1027 10 16.09344 0 0
2:15 pm 14:15 Mostly Cloudy 57 13.7 38 3.4 50 50 NNW 9 15 30.33 1027 10 16.09344 0 0
2:35 pm 14:35 Partly Cloudy 57 14.1 37 2.9 47 47 NW 10 17 30.33 1027 10 16.09344 0 0
2:55 pm 14:55 Partly Cloudy 57 14.1 37 2.8 47 47 NNW 8 13 30.33 1027 10 16.09344 0 0
3:15 pm 15:15 Partly Cloudy 57 14.1 36 2.2 45 45 NW 9 15 30.3 1026 10 16.09344 0 0
3:35 pm 15:35 Partly Cloudy 58 14.3 36 2.1 44 44 NNW 7 11 30.3 1026 10 16.09344 0 0
3:55 pm 15:55 Mostly Cloudy 59 14.9 35 1.5 40 40 NNW 7 11 30.3 1026 10 16.09344 0 0
4:15 pm 16:15 Partly Cloudy 58 14.3 34 1.2 41 41 NW 10 17 30.3 1026 10 16.09344 0 0
4:35 pm 16:35 Sunny 57 14.1 35 1.5 43 43 NNW 3 6 30.3 1026 10 16.09344 0 0
4:55 pm 16:55 Sunny 58 14.3 33 0.6 39 39 WNW 9 15 30.3 1026 10 16.09344 0 0
5:15 pm 17:15 Sunny 58 14.2 34 1.1 41 41 Calm 30.3 1026 10 16.09344 0 0
5:35 pm 17:35 Sunny 57 13.9 34 1.2 42 42 N 5 7 30.3 1026 10 16.09344 0 0
5:55 pm 17:55 Sunny 56 13.6 33 0.8 42 42 Calm 30.27 1025 10 16.09344 0 0
6:15 pm 18:15 Sunny 56 13.3 33 0.6 42 42 Calm 30.27 1025 10 16.09344 0 0
6:35 pm 18:35 Sunny 54 12.2 33 0.7 46 46 Calm 30.27 1025 10 16.09344 0 0
6:55 pm 18:55 Clear 51 10.3 34 1 53 53 Calm 30.3 1026 10 16.09344 0 0
7:15 pm 19:15 Clear 48 8.8 34 1.2 59 59 Calm 30.3 1026 7 11.265408 0 0
7:35 pm 19:35 Clear 47 8.2 35 1.4 63 63 SSE 3 6 30.33 1027 10 16.09344 0 0
7:55 pm 19:55 Clear 46 7.7 34 1 63 63 Calm 30.36 1028 10 16.09344 0 0
8:15 pm 20:15 Clear 45 7 33 0.6 64 64 SSE 3 6 30.33 1027 10 16.09344 0 0
8:35 pm 20:35 Clear 43 6 33 0.3 67 67 SE 3 6 30.33 1027 10 16.09344 0 0
8:55 pm 20:55 Clear 43 6.1 33 0.6 68 68 Calm 30.33 1027 10 16.09344 0 0
9:15 pm 21:15 Clear 43 6 33 0.5 68 68 Calm 30.33 1027 10 16.09344 0 0
9:35 pm 21:35 Clear 42 5.3 33 0.3 70 70 SSE 3 6 30.33 1027 10 16.09344 0 0
9:55 pm 21:55 Clear 40 4.5 32 0 73 73 SSE 3 6 30.36 1028 10 16.09344 0 0
10:15 pm 22:15 Clear 40 4.3 32 0 74 74 Calm 30.36 1028 10 16.09344 0 0
10:35 pm 22:35 Clear 39 4 32 0 75 75 Calm 30.36 1028 10 16.09344 0 0
10:55 pm 22:55 Clear 40 4.5 32 0.2 74 74 SSE 3 6 30.36 1028 10 16.09344 0 0
11:15 pm 23:15 Clear 38 3.2 32 0 80 80 SSE 3 6 30.36 1028 10 16.09344 0 0
11:35 pm 23:35 Clear 39 4 32 0 75 75 S 6 9 30.36 1028 10 16.09344 0 0
11:55 pm 23:55 Clear 40 4.3 32 0.2 75 75 S 6 9 30.33 1027 10 16.09344 0 0

Powered by AerisWeather